Location: West Sayville
(40.7279°N, 73.0976°W)
Time: 09:45:17
(UTC+00:00)

Cosmos 1726 Rocket - Pass Details

Date: 29 October 2020
Orbit: 604 x 628 km, 82.5° (Epoch: 23 November)

Event Time Altitude Azimuth Distance (km) Brightness Sun altitude
Rises 22:12:32 0° 181° (S) 2,852 7.2 -4.6°
Reaches altitude 10° 22:14:44 10° 179° (S) 1,957 6.3 -5.0°
Maximum altitude 22:19:02 72° 95° (E) 647 3.5 -5.8°
Drops below altitude 10° 22:23:25 10° 12° (NNE) 1,987 5.9 -6.6°
Sets 22:25:40 0° 10° (N) 2,902 6.8 -7.0°
